Flag for U.S.A. Weather past 2 weeks in Denver, Colorado, U.S.A.

Now
60 °F

Broken clouds.


Feels Like: 59 °F
Forecast: 42 / 62 °F
Wind: 6 mph from West

Location: Buckley Air Force Base

Current Time: Oct 1, 2014 at 11:27:19 AM

Latest Report: Oct 1, 2014 at 10:58 AM


Visibility: 10 mi

Pressure: 29.75 "Hg

Humidity: 42%

Dew point: 36 °F

Location of DenverLocation

Historic Weather in Denver — Graph

°F

Denver temperature yesterday

Maximum temperature yesterday: 66 °F (at 12:58 PM)
Minimum temperature yesterday: 44 °F (at 6:58 AM)
Average temperature yesterday: 55 °F

Past Weeks' High & Low Weather Summary

 TemperatureHumidityPressure
High88 °F (Sep 17, 3:58 PM)100% (Sep 21, 10:58 PM)30.31 "Hg (Sep 21, 10:58 PM)
Low44 °F (Sep 30, 6:58 AM)14% (Sep 17, 2:58 PM)29.70 "Hg (Sep 30, 2:58 PM)
Average65 °F50%29.91 "Hg
* Reported Sep 16 9:58 AM — Oct 1 9:58 AM, Denver, Weather by CustomWeather, © 2014

Note: Actual official high and low records may vary slightly from our data, if they occured in-between our weather recording intervals... More about our weather records

Advertising

Denver weather history for previous 24 hours

 ConditionsComfort  
Time TempWeatherWind HumidityBarometerVisibility
9:58 AM
Oct 1
57 °FPartly sunny.5 mph42%29.78 "Hg10 mi
8:58 AM52 °FBroken clouds.6 mph57%29.78 "Hg10 mi
7:58 AM48 °FBroken clouds.8 mph63%29.80 "Hg10 mi
6:58 AM44 °FPartly cloudy.7 mph71%29.79 "Hg10 mi
5:58 AM45 °FPartly cloudy.7 mph68%29.77 "Hg10 mi
4:58 AM45 °FPassing clouds.7 mph66%29.75 "Hg10 mi
3:58 AM46 °FPassing clouds.9 mph68%29.75 "Hg10 mi
2:58 AM46 °FPassing clouds.7 mph69%29.76 "Hg10 mi
1:58 AM46 °FPassing clouds.5 mph73%29.76 "Hg10 mi
12:58 AM49 °FPassing clouds.6 mph60%29.74 "Hg10 mi
11:58 PM
Sep 30
52 °FPassing clouds.1 mph51%29.72 "Hg10 mi
10:58 PM54 °FPartly cloudy.2 mph51%29.75 "Hg10 mi
9:58 PM54 °FPassing clouds.6 mph57%29.75 "Hg10 mi
8:58 PM58 °FPartly cloudy.3 mph39%29.75 "Hg10 mi
7:58 PM59 °FPartly cloudy.16 mph38%29.76 "Hg10 mi
6:58 PM58 °FPartly sunny.2 mph52%29.75 "Hg10 mi
5:58 PM61 °FPartly sunny.3 mph42%29.73 "Hg10 mi
4:58 PM63 °FBroken clouds.2 mph30%29.71 "Hg10 mi
3:58 PM63 °FBroken clouds.3 mph31%29.71 "Hg10 mi
2:58 PM65 °FBroken clouds.17 mph29%29.70 "Hg10 mi
1:58 PM65 °FBroken clouds.17 mph30%29.72 "Hg10 mi
12:58 PM66 °FBroken clouds.18 mph28%29.72 "Hg10 mi
11:58 AM64 °FScattered clouds.15 mph28%29.72 "Hg10 mi
Weather by CustomWeather, © 2014

See weather overviewHow to use our weather pages